[[{"header":{"parameterUnit":"m.s-1","parameterCategory":1,"la1":30.2991,"la2":30.254,"lo1":-89.0895,"lo2":-89.0444,"dy":0.0017,"dx":0.0017,"nx":28,"ny":28,"refTime":"2024-04-03T03:00:00:Z","depth":0,"parameterNumber":2,"parameterNumberName":"U-component_of_WINDS"},"data":[0,0,0,0,0,0,0,0,0,0,0,0,0,0,0,0,0,0,0,0,0,0,0,0,0,0,0,0,0,0,0,0,0,0,0,0,0,0,0,0,0,0,0,0,0,0,0,0,0,0,0,0,0,0,0,0,0,0,0.3321,0.332,0,0.3218,0.3217,0.3215,0.3154,0.3153,0.3153,0.3153,0.3049,0.3046,0.3044,0,0,0,0,0,0,0,0,0,0,0,0,0,0.3466,0.3463,0.3321,0.332,0.3318,0.3218,0.3216,0.3215,0.3154,0.3153,0.3153,0.3153,0.305,0.3047,0.3044,0,0,0,0,0,0,0,0,0,0,0,0,0,0.3387,0.3463,0.3321,0.3275,0.327,0.3218,0.3216,0.3215,0.3154,0.3153,0.3153,0.3152,0.305,0.3047,0.3043,0.3029,0,0,0.3032,0.303,0,0,0,0,0,0,0,0,0.3391,0.3382,0.3283,0.3278,0.3273,0.3198,0.3229,0.3152,0.3154,0.3198,0.3153,0.3152,0.3099,0.3091,0.3073,0.3024,0.302,0.3031,0.3029,0.3028,0.3026,0,0,0,0,0,0,0,0.3397,0.3386,0.328,0.3282,0.3276,0.3261,0.3249,0.3214,0.3152,0.3194,0.3189,0.3178,0.3096,0.3077,0.307,0.3018,0.3032,0.3028,0.3026,0.3024,0.2952,0.2952,0,0,0,0,0,0,0.3409,0.3391,0.3283,0.3277,0.3332,0.3258,0.3245,0.3222,0.3152,0.3141,0.3178,0.3175,0.3083,0.3074,0.3066,0.3044,0.3028,0.3024,0.3022,0.2952,0.2952,0.2953,0,0,0,0,0,0,0.3413,0.34,0.3287,0.3332,0.3317,0.3256,0.3231,0.3221,0.3201,0.314,0.3129,0.317,0.3082,0.3071,0.3038,0.304,0.3022,0.3019,0.2951,0.2952,0.2952,0.3002,0,0,0,0,0,0,0.3417,0.3402,0.3396,0.3333,0.3315,0.3261,0.3231,0.3219,0.3195,0.319,0.313,0.3119,0.3081,0.3044,0.3035,0.3035,0.3016,0.2951,0.2952,0.2952,0.3,0.3004,0.3007,0,0,0,0,0,0.3423,0.3414,0.3396,0.3383,0.3305,0.3262,0.3251,0.3207,0.3195,0.3188,0.3149,0.3121,0.3041,0.3041,0.303,0.3029,0.2951,0.2952,0.2952,0.2998,0.3003,0.3007,0,0,0,0,0,0,0.3479,0.3405,0.3384,0.3354,0.3315,0.3251,0.3241,0.3214,0.3177,0.3174,0.3122,0.3109,0.3081,0.3052,0.3053,0.3011,0.2993,0.2991,0.3032,0.3036,0.304,0.3047,0.3013,0,0,0,0,0,0.3488,0.3458,0.3395,0.3376,0.3357,0.3303,0.3282,0.3251,0.3208,0.3191,0.315,0.311,0.3075,0.3054,0.3019,0.2995,0.2981,0.2989,0.2992,0.2996,0.2995,0.298,0.2983,0.2955,0.2955,0.2955,0,0,0.3507,0.3462,0.3447,0.3386,0.3351,0.3322,0.3289,0.3259,0.3237,0.3187,0.3153,0.3122,0.3073,0.3045,0.303,0.3019,0.3,0.2997,0.3,0.2997,0.2981,0.2984,0.2986,0.2955,0.2955,0.2955,0,0,0.3525,0.3489,0.3468,0.3434,0.3383,0.3347,0.3342,0.3282,0.3259,0.3224,0.3186,0.3159,0.3101,0.3068,0.3044,0.305,0.3023,0.304,0.306,0.3046,0.3049,0.305,0.3052,0.3054,0.304,0.304,0.304,0,0.3555,0.3509,0.3461,0.3434,0.3408,0.3361,0.334,0.3309,0.3249,0.3233,0.3222,0.3148,0.3112,0.3075,0.3076,0.3058,0.3051,0.3047,0.3052,0.3053,0.3054,0.3056,0.3057,0.3042,0.3042,0.3042,0.3042,0,0.3548,0.3517,0.3506,0.3449,0.3422,0.3398,0.3347,0.3326,0.3298,0.3263,0.3228,0.3184,0.3139,0.3128,0.31,0.3087,0.3082,0.3062,0.3042,0.306,0.3061,0.3061,0.3046,0.3045,0.3044,0.3044,0,0,0.3599,0.3516,0.3513,0.3486,0.3425,0.34,0.3375,0.333,0.3313,0.3273,0.325,0.3202,0.3183,0.3156,0.3124,0.3112,0.3119,0.3093,0.3091,0.31,0.3102,0.3117,0.3119,0.3101,0.3101,0.3101,0.3106,0,0.3609,0.356,0.3516,0.3483,0.3453,0.3408,0.3385,0.3346,0.3313,0.3283,0.3247,0.3214,0.3191,0.3174,0.316,0.3121,0.3119,0.312,0.3079,0.3078,0.3093,0.3119,0.3135,0.3142,0.3106,0.3106,0.3106,0,0.3614,0.3575,0.3539,0.3481,0.3467,0.3448,0.3403,0.3376,0.333,0.3307,0.3276,0.3243,0.3213,0.3197,0.3156,0.3158,0.3138,0.3117,0.3116,0.311,0.3093,0.3114,0.3143,0.3145,0.3106,0.3106,0.3106,0,0.3655,0.3595,0.3565,0.3543,0.3475,0.3462,0.3433,0.3387,0.3363,0.3325,0.3309,0.3268,0.3245,0.3214,0.3171,0.3163,0.3134,0.3114,0.3115,0.3116,0.3111,0.3112,0.3137,0.3098,0.3098,0.3098,0.3098,0,0.3671,0.365,0.3582,0.3564,0.354,0.349,0.3468,0.3435,0.3394,0.3369,0.3327,0.3305,0.3248,0.3219,0.3185,0.3156,0.3146,0.3127,0.3118,0.3131,0.3133,0.3117,0.3116,0.3099,0.3098,0.3098,0.3098,0,0.3713,0.3667,0.3631,0.3569,0.3553,0.3538,0.3486,0.3466,0.3431,0.3399,0.3389,0.3334,0.3297,0.325,0.3199,0.3176,0.3151,0.3137,0.3166,0.3161,0.3164,0.3165,0.3181,0.318,0.3142,0.3142,0.3143,0,0.3726,0.3709,0.3646,0.3626,0.3598,0.3566,0.3541,0.3492,0.3468,0.3415,0.3402,0.3362,0.3327,0.327,0.3226,0.3186,0.3171,0.318,0.3165,0.3178,0.3171,0.3173,0.3171,0.3184,0.3184,0.3185,0.3185,0,0.3754,0.3732,0.3698,0.3656,0.3627,0.3592,0.3554,0.354,0.3483,0.3458,0.342,0.3393,0.334,0.3301,0.3256,0.3226,0.3196,0.319,0.3188,0.3201,0.3218,0.3209,0.3177,0.319,0.3189,0.3189,0.3189,0.3189,0.3782,0.3765,0.3718,0.3681,0.3647,0.3613,0.3592,0.3554,0.3521,0.3474,0.3447,0.3409,0.3364,0.33,0.3271,0.3242,0.323,0.3228,0.3227,0.3227,0.3231,0.3223,0.3233,0.3233,0.3233,0.3233,0.3232,0,0.3808,0.3775,0.3742,0.3691,0.3662,0.3636,0.3593,0.3571,0.3538,0.3498,0.3465,0.3421,0.3383,0.3335,0.3293,0.3279,0.3264,0.327,0.327,0.3264,0.3243,0.3249,0.3282,0.3282,0.3282,0.3282,0.3282,0.3282,0.3818,0.3788,0.376,0.3713,0.368,0.3643,0.3621,0.3589,0.3557,0.3509,0.3477,0.3446,0.3403,0.3358,0.3322,0.3309,0.3295,0.3305,0.3288,0.327,0.3265,0.3261,0.3266,0.3303,0.3303,0.3311,0.3311,0.3311]},{"header":{"parameterUnit":"m.s-1","parameterCategory":1,"la1":30.2991,"la2":30.254,"lo1":-89.0895,"lo2":-89.0444,"dy":0.0017,"dx":0.0017,"nx":28,"ny":28,"refTime":"2024-04-03T03:00:00:Z","depth":0,"parameterNumber":3,"parameterNumberName":"V-component_of_WINDS"},"data":[0,0,0,0,0,0,0,0,0,0,0,0,0,0,0,0,0,0,0,0,0,0,0,0,0,0,0,0,0,0,0,0,0,0,0,0,0,0,0,0,0,0,0,0,0,0,0,0,0,0,0,0,0,0,0,0,0,0,5.3141,5.3143,0,5.3321,5.3323,5.3325,5.3351,5.335,5.3348,5.3347,5.353,5.3536,5.3542,0,0,0,0,0,0,0,0,0,0,0,0,0,5.2821,5.2826,5.3141,5.3143,5.3146,5.3321,5.3323,5.3326,5.3352,5.335,5.3348,5.3346,5.3528,5.3535,5.3543,0,0,0,0,0,0,0,0,0,0,0,0,0,5.2976,5.2828,5.3141,5.318,5.3185,5.332,5.3323,5.3326,5.3352,5.335,5.3347,5.3345,5.3525,5.3534,5.3544,5.3653,0,0,5.3573,5.3577,0,0,0,0,0,0,0,0,5.2967,5.2988,5.3172,5.3177,5.3183,5.3311,5.3278,5.3436,5.3353,5.3289,5.3346,5.3344,5.3459,5.3474,5.3513,5.3661,5.3669,5.3574,5.358,5.3584,5.3587,0,0,0,0,0,0,0,5.2956,5.298,5.3212,5.3174,5.3181,5.3188,5.3208,5.3308,5.3385,5.3294,5.3296,5.3317,5.3462,5.3504,5.3517,5.3672,5.3574,5.3582,5.3588,5.3592,5.3922,5.3925,0,0,0,0,0,0,5.2939,5.2971,5.3206,5.3218,5.3067,5.3196,5.3218,5.3273,5.3384,5.3399,5.3319,5.3318,5.3488,5.3506,5.3524,5.3661,5.3584,5.3593,5.3599,5.3919,5.3922,5.3926,0,0,0,0,0,0,5.2932,5.2959,5.3199,5.3095,5.3126,5.3204,5.3266,5.3278,5.332,5.3403,5.3417,5.3348,5.3487,5.351,5.3621,5.3668,5.3597,5.3606,5.3915,5.392,5.3924,5.3935,0,0,0,0,0,0,5.2922,5.2957,5.2998,5.3096,5.3132,5.3293,5.3269,5.3283,5.3336,5.3336,5.3434,5.3448,5.3487,5.3607,5.3631,5.368,5.3614,5.3911,5.3917,5.3923,5.3931,5.3939,5.3947,0,0,0,0,0,5.2911,5.2993,5.3,5.3029,5.3185,5.3296,5.3316,5.336,5.334,5.3383,5.3437,5.3445,5.3659,5.3618,5.3645,5.3698,5.3909,5.3916,5.3922,5.3927,5.3938,5.3946,0,0,0,0,0,0,5.2898,5.3007,5.3016,5.3132,5.3205,5.33,5.3356,5.3369,5.3449,5.3445,5.3496,5.3518,5.3627,5.3673,5.3626,5.3811,5.3782,5.3794,5.3777,5.3787,5.3795,5.3782,5.3622,0,0,0,0,0,5.2909,5.2989,5.308,5.3174,5.321,5.3277,5.3326,5.3354,5.3431,5.3462,5.3524,5.3598,5.3683,5.3737,5.3819,5.3937,5.396,5.3987,5.3995,5.4001,5.4012,5.4081,5.4094,5.3948,5.3948,5.3948,0,0,5.2932,5.3001,5.3049,5.3173,5.3233,5.3316,5.3302,5.339,5.3453,5.3475,5.3585,5.3633,5.3719,5.3835,5.3889,5.3877,5.4057,5.401,5.4014,5.4021,5.4089,5.4103,5.4115,5.3952,5.3951,5.3951,0,0,5.3017,5.3076,5.3163,5.3224,5.3315,5.3359,5.3379,5.3474,5.3507,5.3618,5.3637,5.3712,5.3856,5.3918,5.3968,5.4079,5.409,5.4104,5.4146,5.4213,5.4224,5.4235,5.4277,5.4291,5.4114,5.4114,5.4114,0,5.3034,5.316,5.3205,5.3294,5.3349,5.3374,5.3464,5.352,5.3632,5.367,5.3655,5.3838,5.3898,5.403,5.4057,5.4096,5.4123,5.4094,5.4219,5.423,5.424,5.4281,5.4297,5.4116,5.4116,5.4115,5.4115,0,5.3178,5.3266,5.3325,5.3435,5.3496,5.3584,5.3644,5.3701,5.3724,5.377,5.3883,5.3956,5.4055,5.4088,5.411,5.4225,5.4215,5.4208,5.4181,5.4255,5.4295,5.431,5.4118,5.4117,5.4117,5.4116,0,0,5.326,5.3396,5.3417,5.3468,5.3572,5.364,5.373,5.3828,5.3877,5.3954,5.4032,5.4154,5.415,5.4207,5.4237,5.4295,5.4382,5.4282,5.4285,5.43,5.4516,5.4521,5.4538,5.4389,5.4392,5.4395,5.4509,0,5.3359,5.3521,5.3565,5.3703,5.3785,5.3812,5.389,5.3963,5.4008,5.4086,5.4136,5.4223,5.4209,5.4245,5.4303,5.4359,5.4426,5.4351,5.4464,5.4467,5.4443,5.4559,5.4564,5.4669,5.4525,5.4527,5.4529,0,5.3496,5.3578,5.3724,5.3819,5.3856,5.3926,5.402,5.4093,5.4176,5.4206,5.4271,5.4296,5.4392,5.4358,5.4492,5.444,5.4489,5.4524,5.4529,5.4543,5.4504,5.4578,5.4702,5.4719,5.4553,5.4551,5.455,0,5.3544,5.3691,5.3798,5.3841,5.3954,5.4003,5.4053,5.4133,5.419,5.4273,5.4311,5.4402,5.4453,5.4524,5.4574,5.4544,5.4705,5.4675,5.4733,5.4732,5.4767,5.4765,5.4904,5.4795,5.4794,5.4794,5.4794,0,5.3651,5.374,5.3822,5.3888,5.3989,5.404,5.4138,5.4189,5.4261,5.4338,5.4365,5.4437,5.4497,5.4577,5.4616,5.4723,5.4745,5.4773,5.4782,5.4772,5.4769,5.4806,5.48,5.4798,5.4797,5.4797,5.4796,0,5.3723,5.378,5.39,5.3998,5.4025,5.4095,5.418,5.4246,5.4293,5.439,5.4416,5.449,5.4586,5.4643,5.4763,5.479,5.4909,5.4914,5.4881,5.4886,5.4943,5.4937,5.5112,5.5139,5.5009,5.5011,5.5012,0,5.3788,5.3858,5.3964,5.4019,5.4069,5.4155,5.4214,5.4267,5.4327,5.4429,5.4483,5.4581,5.4662,5.4815,5.488,5.4973,5.4982,5.5037,5.4996,5.4984,5.4986,5.4982,5.4991,5.5044,5.5045,5.5046,5.5047,0,5.39,5.3926,5.4009,5.4105,5.4174,5.4251,5.4328,5.437,5.4436,5.4503,5.4602,5.4665,5.479,5.4888,5.4987,5.5038,5.5055,5.5059,5.5079,5.5069,5.5048,5.5063,5.4903,5.5055,5.5055,5.5054,5.5054,5.5053,5.3972,5.4037,5.4123,5.4216,5.4279,5.4351,5.4419,5.4475,5.4559,5.4666,5.4691,5.4797,5.488,5.5015,5.5069,5.5153,5.5144,5.517,5.5177,5.5184,5.5187,5.5033,5.517,5.517,5.517,5.517,5.517,0,5.4088,5.4145,5.423,5.4338,5.4412,5.4421,5.4507,5.4568,5.4661,5.4737,5.4818,5.4933,5.5029,5.5102,5.52,5.5253,5.5263,5.5277,5.5275,5.5287,5.5188,5.5163,5.5267,5.5267,5.5267,5.5267,5.5267,5.5267,5.4156,5.4267,5.4303,5.4446,5.4502,5.4606,5.4655,5.4722,5.4784,5.4912,5.4992,5.5039,5.5116,5.522,5.5308,5.5327,5.5363,5.5377,5.5397,5.5304,5.5293,5.5283,5.5261,5.5383,5.5383,5.549,5.549,5.5491]}]]